DateTimeUTC,F1_A11,F1_S11,BsB_S11,BsG_S11,BsR_S11,BbsB_S11,BbsG_S11,BbsR_S11,BaB_A11,BaG_A11,BaR_A11,Tu_S11,T_S11,Uu_S11,U_S11,P_S11,T1_A11
2021-03-24T13:00:00Z,00000200,21000000,,,,,,,0000.25,0000.24,-000.07,16.3,23.9,,00.0,0625.8,30.9
2021-03-24T13:01:00Z,00000200,21000000,,,,,,,0000.35,0000.28,0000.64,16.3,23.9,,00.0,0625.8,30.9
2021-03-24T13:02:00Z,00000200,21000000,,,,,,,0000.20,0000.29,0000.05,16.2,23.9,,00.0,0625.8,30.9
2021-03-24T13:03:00Z,00000200,61000000,,,,,,,0000.43,0000.66,0000.25,16.2,23.9,,00.0,0625.8,30.9
2021-03-24T13:04:00Z,00000200,41000000,0001.37,0000.68,0000.29,0000.24,-000.03,0000.04,0000.90,0000.61,0000.84,16.5,23.7,,00.0,0626.7,30.9
2021-03-24T13:05:00Z,00000200,01000000,0000.92,0000.74,0000.40,-000.14,0000.24,-000.12,0000.33,0000.32,0000.29,16.7,23.7,,00.0,0626.8,30.9
2021-03-24T13:06:00Z,00000200,01000000,0001.05,0000.92,0000.39,0000.08,0000.25,-000.24,0000.83,0000.13,0000.07,16.7,23.7,,00.0,0626.8,30.9
2021-03-24T13:07:00Z,00000200,01000000,0001.00,0000.88,0000.47,0000.28,0000.03,-000.14,0000.00,0000.50,0000.50,16.8,23.7,,00.0,0626.8,30.9
2021-03-24T13:08:00Z,00000200,01000000,0000.37,0000.97,0000.34,0000.37,0000.03,0000.01,0000.82,0000.87,0000.69,16.7,23.7,,00.0,0626.7,30.9
2021-03-24T13:09:00Z,00000200,01000000,0000.78,0000.90,0000.72,0000.13,0000.02,0000.27,0000.41,0000.37,-000.05,16.6,23.6,,00.0,0626.7,30.8
2021-03-24T13:10:00Z,00000200,01000000,0000.81,0001.01,0000.71,0000.27,0000.19,0000.25,0000.29,0000.28,0000.29,16.5,23.6,,00.0,0626.7,30.8
2021-03-24T13:11:00Z,00000200,01000000,0001.57,0000.66,0000.19,0000.20,0000.02,-000.19,0000.90,0000.39,0000.51,16.5,23.5,,00.0,0626.7,30.8
2021-03-24T13:12:00Z,00000200,01000000,0000.80,0001.17,0000.55,0000.07,0000.20,-000.11,0001.18,0001.58,0000.82,16.4,23.5,,00.0,0626.7,30.8
2021-03-24T13:13:00Z,00000200,01000000,0001.03,0000.81,0000.69,0000.26,0000.24,-000.07,0003.85,0002.77,0002.30,16.4,23.5,,00.0,0626.7,30.8
2021-03-24T13:14:00Z,00000200,01000000,0000.97,0000.68,0000.36,0000.16,0000.16,0000.28,-002.16,-001.47,-001.07,16.3,23.4,,00.0,0626.7,30.8
2021-03-24T13:15:00Z,00000200,01000000,0001.13,0001.19,0000.64,-000.01,0000.14,0000.25,0000.45,0000.12,0000.29,16.2,23.4,,00.0,0626.7,30.8
2021-03-24T13:16:00Z,00000200,01000000,0000.86,0001.10,0000.67,0000.67,0000.07,0000.04,0000.26,0000.34,0000.37,16.2,23.3,,00.0,0626.7,30.7
2021-03-24T13:17:00Z,00000200,01000000,0000.67,0001.22,0000.53,0000.67,0000.19,0000.28,0000.89,0000.85,0000.45,16.1,23.3,,00.0,0626.7,30.7
2021-03-24T13:18:00Z,00000200,01000000,0001.37,0000.78,0000.50,-000.09,0000.26,0000.01,0000.54,0000.52,0000.52,16.2,23.3,,00.0,0626.7,30.8
2021-03-24T13:19:00Z,00000200,01000000,0001.39,0000.70,0000.47,0000.18,0000.18,0000.21,0000.90,0000.45,0000.51,16.2,23.3,,00.0,0626.7,30.8
2021-03-24T13:20:00Z,00000200,01000000,0000.63,0000.85,0000.54,0000.07,0000.24,0000.11,0000.03,0000.38,0000.02,16.3,23.3,,00.0,0626.7,30.8
2021-03-24T13:21:00Z,00000200,01000000,0000.80,0000.99,0000.40,-000.02,0000.32,-000.03,0000.37,0000.71,0000.36,16.3,23.3,,00.0,0626.7,30.8
2021-03-24T13:22:00Z,00000200,01000000,0000.70,0000.91,0000.62,-000.05,0000.15,-000.11,0000.80,0000.24,0000.54,16.4,23.4,,00.0,0626.7,30.9
2021-03-24T13:23:00Z,00000200,01000000,0001.44,0000.94,0000.24,0000.02,0000.15,0000.02,0000.55,0000.70,0000.46,16.5,23.4,,00.0,0626.7,30.9
2021-03-24T13:24:00Z,00000200,01000000,0001.20,0001.12,0000.70,0000.66,0000.23,0000.09,0000.39,0000.48,0000.09,16.5,23.4,,00.0,0626.7,30.9
2021-03-24T13:25:00Z,00000200,01000000,0001.58,0000.98,0000.49,0000.91,0000.37,0000.03,0000.67,0000.92,0000.61,16.6,23.4,,00.0,0626.7,30.9
2021-03-24T13:26:00Z,00000200,01000000,0001.02,0000.71,0000.47,0000.55,0000.25,0000.10,0000.69,0000.20,0000.28,16.6,23.5,,00.0,0626.7,30.9
2021-03-24T13:27:00Z,00000200,01000000,0001.20,0001.05,0000.47,0000.18,0000.19,-000.02,0000.20,0000.20,0000.19,16.7,23.5,,00.0,0626.7,30.9
2021-03-24T13:28:00Z,00000200,01000000,0001.16,0001.22,0000.55,0000.14,0000.22,0000.09,0000.48,0000.32,0000.23,16.7,23.5,,00.0,0626.7,30.9
2021-03-24T13:29:00Z,00000200,01000000,0002.08,0000.92,0000.46,-000.09,0000.25,-000.17,0000.06,0000.58,0000.18,16.6,23.5,,00.0,0626.8,30.9
2021-03-24T13:30:00Z,00000200,01000000,0000.86,0001.10,0000.59,-000.03,0000.10,0000.12,0000.71,0000.15,0000.74,16.6,23.5,,00.0,0626.8,30.9
2021-03-24T13:31:00Z,00000200,01000000,0001.55,0001.00,0000.46,-000.01,0000.40,0000.07,0000.40,0000.44,-000.07,16.6,23.5,,00.0,0626.8,30.9
2021-03-24T13:32:00Z,00000200,01000000,0001.67,0000.93,0000.40,0000.46,0000.11,-000.00,0000.25,0000.38,0000.68,16.6,23.5,,00.0,0626.8,30.9
2021-03-24T13:33:00Z,00000200,01000000,0000.86,0000.72,0000.16,0000.14,-000.03,-000.28,0000.54,0000.33,-000.03,16.7,23.5,,00.0,0626.8,30.9
2021-03-24T13:34:00Z,00000200,01000000,0001.61,0001.02,0000.24,0000.83,0000.17,0000.05,0000.60,0000.58,0000.47,16.8,23.5,,00.0,0626.8,30.9
2021-03-24T13:35:00Z,00000200,01000000,0001.29,0001.03,0000.53,0000.18,0000.08,-000.14,0000.05,0000.55,0000.19,16.8,23.6,,00.0,0626.9,30.9
2021-03-24T13:36:00Z,00000200,01000000,0001.74,0000.62,0000.76,0000.04,0000.14,-000.07,0000.70,0000.26,0000.27,16.9,23.6,,00.0,0626.9,31.0
2021-03-24T13:37:00Z,00000200,01000000,0001.72,0000.89,0000.50,0000.23,-000.12,-000.04,0000.29,0000.23,0000.22,17.0,23.7,,00.0,0626.9,31.0
2021-03-24T13:38:00Z,00000200,01000000,0001.65,0001.48,0000.58,-000.02,0000.34,0000.07,0000.45,0000.69,0000.20,17.0,23.7,,00.0,0626.9,30.9
2021-03-24T13:39:00Z,00000200,01000000,0000.65,0001.03,0000.39,0000.23,0000.18,-000.09,0000.28,0000.40,0000.49,17.0,23.7,,00.0,0626.8,30.9
2021-03-24T13:40:00Z,00000200,01000000,0001.20,0001.09,0000.50,0000.06,0000.13,0000.05,0000.49,0000.12,0000.39,16.9,23.7,,00.0,0626.8,30.9
2021-03-24T13:41:00Z,00000200,01000000,0000.62,0001.04,0000.63,-000.01,0000.12,-000.18,0000.67,0000.57,0000.40,16.9,23.7,,00.0,0626.8,31.0
2021-03-24T13:42:00Z,00000200,01000000,0001.19,0001.04,0000.59,0000.11,0000.01,0000.08,0000.59,0000.46,0000.08,16.9,23.7,,00.0,0626.8,30.9
2021-03-24T13:43:00Z,00000200,01000000,0001.37,0000.97,0000.50,0000.51,0000.20,-000.07,-000.07,-000.03,0000.22,16.8,23.7,,00.0,0626.9,30.9
2021-03-24T13:44:00Z,00000200,01000000,0001.41,0001.02,0000.61,0000.36,-000.15,-000.05,0000.50,0000.71,0000.25,16.8,23.7,,00.0,0626.9,30.9
2021-03-24T13:45:00Z,00000200,01000000,0001.71,0000.92,0000.67,-000.04,0000.09,0000.09,0000.93,0000.12,0000.44,16.8,23.7,,00.0,0626.9,30.9
2021-03-24T13:46:00Z,00000200,01000000,0001.27,0000.90,0000.47,0000.42,0000.09,0000.02,0000.64,0001.20,0000.77,16.8,23.6,,00.0,0626.9,30.9
2021-03-24T13:47:00Z,00000200,01000000,0001.31,0000.91,0000.55,0000.24,0000.26,0000.10,0000.34,0000.02,0000.04,16.8,23.7,,00.0,0626.9,30.9
2021-03-24T13:48:00Z,00000200,01000000,0001.36,0000.91,0000.57,0000.53,0000.01,0000.11,0000.46,0000.40,0000.53,16.9,23.7,,00.0,0626.9,30.9
2021-03-24T13:49:00Z,00000200,01000000,0001.09,0001.26,0000.61,0000.29,0000.24,0000.03,0000.75,0000.76,0000.66,17.0,23.7,,00.0,0626.9,31.0
2021-03-24T13:50:00Z,00000200,01000000,0001.06,0000.96,0000.79,0000.16,0000.11,0000.16,0000.69,0000.50,0000.28,17.1,23.8,,00.0,0626.9,31.0
2021-03-24T13:51:00Z,00000200,01000000,0000.84,0001.27,0000.29,0000.24,-000.02,-000.00,0000.18,0000.48,0000.29,17.1,23.8,,00.0,0627.0,31.0
2021-03-24T13:52:00Z,00000200,01000000,0001.05,0001.10,0000.51,0000.46,0000.31,0000.07,0000.06,0000.33,-000.17,17.2,23.9,,00.0,0627.0,31.0
2021-03-24T13:53:00Z,00000200,01000000,0001.11,0001.12,0000.58,0000.29,0000.25,-000.08,0000.34,0000.21,0000.53,17.3,23.9,,00.0,0627.0,31.0
2021-03-24T13:54:00Z,00000200,01000000,0000.74,0000.98,0000.67,0000.16,0000.22,0000.04,0000.14,0000.01,0000.34,17.4,24.0,,00.0,0627.0,31.0
2021-03-24T13:55:00Z,00000200,01000000,0001.41,0001.02,0000.79,0000.23,0000.32,0000.27,0000.71,0000.65,0000.04,17.4,24.0,,00.0,0627.0,31.0
2021-03-24T13:56:00Z,00000200,01000000,0001.38,0001.04,0000.33,0000.12,0000.31,0000.09,0000.45,0000.57,0000.67,17.5,24.1,,00.0,0627.0,31.0
2021-03-24T13:57:00Z,00000200,41000000,,,,,,,0000.39,0000.00,0000.04,17.6,24.1,,00.0,0627.0,31.0
2021-03-24T13:58:00Z,00000200,61000000,,,,,,,-000.18,0000.11,0000.03,17.3,24.3,,00.0,0626.1,31.1
2021-03-24T13:59:00Z,00000200,21000000,,,,,,,-000.03,0000.02,-000.23,17.4,24.4,,00.0,0626.1,31.1
